TimeEST,TemperatureF,Dew PointF,Humidity,Sea Level PressureIn,VisibilityMPH,Wind Direction,Wind SpeedMPH,Gust SpeedMPH,PrecipitationIn,Events,Conditions,WindDirDegrees,DateUTC
12:53 AM,34.0,33.1,96,29.94,3.0,WSW,10.4,-,N/A,,Overcast,250,2012-12-25 05:53:00
1:12 AM,33.8,33.8,100,29.92,2.5,WSW,10.4,-,N/A,,Overcast,250,2012-12-25 06:12:00
1:33 AM,33.8,33.8,100,29.93,2.0,West,10.4,-,N/A,,Overcast,260,2012-12-25 06:33:00
1:53 AM,34.0,33.1,96,29.97,2.0,West,8.1,-,N/A,,Overcast,280,2012-12-25 06:53:00
2:17 AM,33.8,33.8,100,29.94,1.5,West,9.2,-,N/A,,Overcast,260,2012-12-25 07:17:00
2:53 AM,34.0,33.1,96,30.00,1.2,West,9.2,-,N/A,,Overcast,260,2012-12-25 07:53:00
3:36 AM,33.8,33.8,100,29.97,0.8,West,9.2,-,N/A,,Overcast,270,2012-12-25 08:36:00
3:51 AM,33.8,33.8,100,29.97,0.5,West,10.4,-,N/A,Fog,Fog,260,2012-12-25 08:51:00
3:53 AM,34.0,33.1,96,30.01,0.5,West,8.1,-,N/A,Fog,Fog,270,2012-12-25 08:53:00
4:17 AM,33.8,33.8,100,29.98,1.0,West,8.1,-,N/A,,Mist,270,2012-12-25 09:17:00
4:46 AM,33.8,32.0,93,29.99,2.5,West,9.2,-,N/A,,Overcast,280,2012-12-25 09:46:00
4:53 AM,33.1,32.0,96,30.04,2.5,West,8.1,-,N/A,,Overcast,260,2012-12-25 09:53:00
5:13 AM,33.8,32.0,93,30.00,1.5,West,9.2,-,N/A,,Overcast,270,2012-12-25 10:13:00
5:53 AM,33.1,32.0,96,30.07,1.2,West,8.1,-,N/A,,Overcast,280,2012-12-25 10:53:00
6:09 AM,33.8,32.0,93,30.04,2.5,West,8.1,-,N/A,,Overcast,270,2012-12-25 11:09:00
6:13 AM,33.8,32.0,93,30.04,3.0,West,6.9,-,N/A,,Overcast,280,2012-12-25 11:13:00
6:53 AM,33.1,30.9,92,30.11,4.0,WNW,5.8,-,N/A,,Overcast,300,2012-12-25 11:53:00
7:03 AM,33.8,30.2,87,30.07,4.0,WNW,5.8,-,N/A,,Overcast,290,2012-12-25 12:03:00
7:30 AM,33.8,32.0,93,30.07,3.0,NW,3.5,-,N/A,,Overcast,310,2012-12-25 12:30:00
7:38 AM,33.8,32.0,93,30.08,2.5,NNW,4.6,-,N/A,,Overcast,330,2012-12-25 12:38:00
7:53 AM,33.1,32.0,96,30.13,3.0,NW,5.8,-,N/A,,Overcast,310,2012-12-25 12:53:00
8:15 AM,33.8,30.2,87,30.09,3.0,NW,4.6,-,N/A,,Overcast,310,2012-12-25 13:15:00
8:53 AM,33.1,30.9,92,30.14,3.0,NNW,4.6,-,N/A,,Overcast,330,2012-12-25 13:53:00
9:07 AM,33.8,30.2,87,30.10,2.5,NNW,3.5,-,N/A,,Overcast,340,2012-12-25 14:07:00
9:21 AM,33.8,30.2,87,30.11,3.0,NNW,3.5,-,N/A,,Overcast,340,2012-12-25 14:21:00
9:30 AM,33.8,30.2,87,30.11,2.5,North,4.6,-,0.00,,Overcast,350,2012-12-25 14:30:00
9:39 AM,33.8,30.2,87,30.11,-9999.0,North,-9999.0,-,0.01,,Unknown,0,2012-12-25 14:39:00
9:53 AM,-9999,-9999,N/A,30.11,-9999.0,North,-9999.0,-,0.01,,Unknown,0,2012-12-25 14:53:00
10:53 AM,-9999,-9999,N/A,30.15,-9999.0,North,-9999.0,-,N/A,,Unknown,0,2012-12-25 15:53:00
11:53 AM,-9999,-9999,N/A,30.14,-9999.0,North,-9999.0,-,N/A,,Unknown,0,2012-12-25 16:53:00
12:53 PM,-9999,-9999,N/A,30.14,-9999.0,North,-9999.0,-,N/A,,Unknown,0,2012-12-25 17:53:00
1:27 PM,33.8,28.4,81,30.13,10.0,NNE,6.9,-,N/A,,Overcast,20,2012-12-25 18:27:00
1:53 PM,32.0,28.4,87,30.16,10.0,NNE,8.1,-,N/A,,Overcast,20,2012-12-25 18:53:00
2:00 PM,-9999,-9999,N/A,30.11,-9999.0,North,-9999.0,-,N/A,,Unknown,0,2012-12-25 19:00:00
2:49 PM,33.8,26.6,75,30.14,10.0,NNE,6.9,-,N/A,,Overcast,20,2012-12-25 19:49:00
2:53 PM,33.1,26.1,75,30.18,10.0,North,6.9,-,N/A,,Overcast,10,2012-12-25 19:53:00
3:53 PM,33.1,26.1,75,30.22,10.0,North,3.5,-,N/A,,Overcast,10,2012-12-25 20:53:00
4:53 PM,33.1,25.0,72,30.21,10.0,NNE,6.9,-,N/A,,Overcast,20,2012-12-25 21:53:00
5:53 PM,33.1,25.0,72,30.20,10.0,NNE,6.9,-,N/A,,Overcast,20,2012-12-25 22:53:00
6:53 PM,32.0,25.0,75,30.21,10.0,NE,9.2,-,N/A,,Overcast,50,2012-12-25 23:53:00
7:39 PM,32.0,24.8,75,30.16,10.0,NE,9.2,-,N/A,,Overcast,40,2012-12-26 00:39:00
7:53 PM,32.0,25.0,75,30.21,10.0,NE,8.1,-,N/A,,Overcast,40,2012-12-26 00:53:00
8:53 PM,32.0,26.1,79,30.21,10.0,ENE,8.1,-,N/A,,Overcast,60,2012-12-26 01:53:00
9:53 PM,32.0,26.1,79,30.15,10.0,ENE,9.2,-,N/A,,Overcast,60,2012-12-26 02:53:00
10:53 PM,32.0,25.0,75,30.16,10.0,ENE,10.4,-,N/A,,Mostly Cloudy,60,2012-12-26 03:53:00
11:53 PM,32.0,25.0,75,30.14,10.0,ENE,9.2,-,N/A,,Overcast,70,2012-12-26 04:53:00